Temperature
19 19 19 19 18 18 19 20 20 20 20 20 20 19 19 18 18 18 18 18 19 19 19 19 18 18 18 19 19 19 19 19 19 19 19 19 19 19 19 19 19 19 19 19 19 19 19 19 18
19 19 19 18 18 19 20 20 20 20 20 20 20 19 18 18 18 18 18 18 18 18 18 18 18 18 18 18 18 18 18 18 18 18 19 19 19 19 19 19 19 19 19 19 19 19 19 18 18
19 19 19 17 19 19 20 20 20 20 20 20 19 18 18 18 18 18 18 18 18 18 18 18 18 18 18 18 18 18 18 18 18 18 18 18 18 18 18 18 18 18 18 18 19 18 18 18 18
19 19 18 18 19 20 20 20 19 20 20 20 19 18 18 18 18 18 18 18 18 18 18 18 18 17 17 17 17 17 17 17 17 17 18 18 18 18 18 18 18 18 18 18 18 18 18 18 18
19 19 18 18 19 20 19 20 20 20 20 19 18 17 18 18 18 18 18 18 18 18 18 18 18 17 17 17 17 17 17 17 17 17 17 17 17 17 17 17 17 18 18 18 18 18 18 18 18
20 18 18 19 20 20 20 20 20 20 20 19 18 18 18 18 18 18 18 18 18 18 18 18 18 17 17 17 17 17 17 17 17 17 17 17 17 17 17 17 17 17 17 18 18 18 18 18 18
19 17 19 19 19 20 20 20 20 20 19 19 19 18 18 18 18 18 18 18 18 18 18 18 17 17 17 17 17 16 16 16 16 16 17 17 17 17 17 17 17 17 17 17 17 18 18 18 18
20 17 19 18 19 20 20 21 21 20 20 20 20 18 18 18 18 18 18 18 18 18 18 17 17 17 16 16 16 16 16 16 16 16 16 16 16 17 17 17 17 17 17 17 17 17 17 17 17
20 18 18 19 19 20 20 20 20 20 20 19 19 20 19 19 18 18 18 18 18 18 17 17 17 16 16 16 15 15 15 15 15 16 16 16 16 16 16 17 17 17 17 17 17 17 17 17 17
19 18 19 19 19 19 20 20 20 20 19 19 19 19 19 19 19 18 18 18 18 17 17 17 16 16 15 15 15 15 15 15 15 15 15 15 15 16 16 16 16 17 17 17 17 17 17 17 17
19 19 19 19 19 20 20 20 20 20 19 19 20 19 19 19 19 18 18 18 18 17 17 16 16 15 15 15 15 15 15 15 15 15 15 15 15 15 16 16 16 16 16 17 17 17 17 17 17
18 19 19 19 20 20 20 20 20 20 21 21 21 20 19 19 19 19 18 18 18 17 17 16 15 15 15 14 14 14 14 14 14 15 15 15 15 15 15 15 16 16 16 16 16 16 16 17 17
18 19 19 19 20 20 20 20 20 20 21 21 20 20 20 19 19 19 18 18 17 17 16 16 15 15 14 14 14 14 14 14 14 14 14 15 15 15 15 15 15 15 16 16 16 16 16 16 16
18 19 19 19 20 20 20 20 20 20 21 20 20 20 20 19 19 19 18 18 17 17 16 15 15 14 14 14 14 14 14 14 14 14 14 14 14 15 15 15 15 15 15 16 16 16 16 16 16
18 18 19 19 19 19 20 19 19 21 20 20 20 20 19 19 19 19 18 18 17 17 16 15 15 14 14 14 14 14 14 14 14 14 14 14 14 14 14 14 15 15 15 15 15 16 16 16 16
18 18 18 19 19 19 19 19 20 20 20 19 19 19 19 19 19 18 18 18 17 16 16 15 15 14 14 14 13 13 13 13 13 13 13 13 13 14 14 14 14 14 15 15 15 15 16 16 16
18 18 19 19 19 19 19 19 19 20 19 19 19 19 19 19 18 18 18 17 17 16 16 15 14 14 14 13 13 13 13 13 13 13 13 13 13 13 13 14 14 14 14 15 15 15 15 15 16
18 18 19 19 19 18 18 18 18 19 19 19 19 19 19 19 18 18 18 17 16 16 15 15 14 14 13 13 13 13 13 13 13 13 13 13 13 13 13 13 14 14 14 14 14 15 15 15 15
19 19 19 20 20 18 18 18 18 18 18 18 18 19 19 19 18 18 17 17 16 16 15 15 14 14 13 13 13 13 13 13 13 13 13 13 13 13 13 13 13 13 14 14 14 14 14 15 15
19 19 19 20 20 19 18 18 18 17 18 19 19 19 19 18 18 18 17 17 16 16 15 14 14 13 13 13 12 12 12 12 12 12 12 12 12 12 12 13 13 13 13 13 14 14 14 14 14
19 19 20 20 20 19 19 18 18 18 18 18 19 19 19 19 18 18 17 17 16 16 15 14 14 13 13 13 12 12 12 12 12 12 12 12 12 12 12 12 12 13 13 13 13 13 13 14 14
19 20 20 20 19 18 19 17 17 17 17 17 18 18 19 19 18 18 17 17 16 16 15 14 14 13 13 13 12 12 12 12 12 12 12 12 12 12 12 12 12 12 12 12 13 13 13 13 13
19 19 19 19 18 17 17 17 17 17 18 17 17 18 19 19 19 18 18 17 17 16 15 14 14 13 13 13 12 12 12 12 12 12 12 12 12 12 12 12 12 12 12 12 12 12 12 13 13
19 18 17 15 16 17 17 17 17 16 17 18 17 18 19 19 19 18 18 17 16 16 15 14 14 14 13 13 13 12 12 12 12 12 12 12 12 12 12 12 12 12 12 12 12 12 12 12 12
19 18 17 17 16 16 17 17 16 17 17 17 17 19 20 19 19 18 18 17 16 16 15 15 14 14 13 13 13 13 12 12 12 12 12 12 12 12 12 12 11 11 11 11 11 12 12 12 12
18 18 17 18 17 16 17 16 17 18 18 18 19 19 20 19 19 18 18 17 17 16 15 15 14 14 14 13 13 13 13 12 12 12 12 12 12 12 11 11 11 11 11 11 11 11 11 12 12
18 17 17 16 16 16 16 16 17 19 18 18 18 18 19 19 19 19 18 17 17 16 16 15 15 14 14 14 13 13 13 13 12 12 12 12 12 11 11 11 11 11 11 11 11 11 11 11 11
18 15 14 15 16 17 17 17 17 18 18 18 16 18 19 20 19 19 18 18 17 16 16 15 15 15 15 14 14 13 13 13 13 12 12 12 12 12 11 11 11 11 11 11 11 11 11 11 11
18 17 14 13 14 15 16 16 17 17 17 17 17 19 20 20 20 19 18 18 17 17 16 16 15 15 15 15 14 14 13 13 13 13 12 12 12 12 11 11 11 11 11 11 11 11 11 11 11
19 17 15 16 16 13 14 15 17 16 16 17 18 20 21 21 20 19 19 18 17 17 16 16 16 16 15 15 14 14 14 13 13 13 13 12 12 12 11 11 11 11 11 11 11 11 11 11 11
Wind_Speed
4 4 3 3 3 2 2 3 2 2 3 2 4 6 6 4 2 1 2 0 3 4 5 6 6 6 5 4 4 3 3 3 3 3 4 4 4 4 4 4 4 4 4 4 3 2 2 2 2
4 4 3 3 3 1 3 3 2 0 3 3 5 5 6 4 2 2 2 1 4 4 4 3 4 3 3 3 3 3 4 4 4 5 5 5 5 5 5 6 5 5 5 5 4 3 3 2 2
5 3 2 2 1 3 3 1 0 2 3 2 4 4 4 2 1 0 0 2 4 3 3 1 2 1 2 2 3 4 5 5 5 6 6 6 6 7 7 7 7 7 7 6 6 5 4 3 3
4 3 3 1 3 3 3 2 2 2 3 4 4 4 3 2 0 1 3 4 4 3 2 1 1 1 2 3 4 5 6 6 6 7 7 7 7 8 9 9 9 8 8 8 7 7 6 5 4
3 3 2 1 3 3 2 2 1 1 2 3 4 4 2 2 3 4 4 4 4 3 3 3 3 3 3 4 5 6 6 7 7 8 8 8 8 8 9 9 10 10 10 9 8 8 7 7 6
3 3 2 2 3 3 2 1 2 2 3 3 4 5 2 1 3 3 4 4 3 3 3 4 4 4 4 5 5 6 7 7 8 8 9 9 9 9 9 9 10 10 11 10 9 9 8 8 7
4 3 2 2 2 3 1 2 3 3 4 4 6 5 2 1 3 4 4 4 3 3 3 3 5 5 6 6 6 7 7 8 8 9 9 9 9 9 9 9 10 10 11 11 10 10 9 9 8
4 4 1 1 2 3 1 0 2 3 3 4 5 7 5 4 5 6 5 4 3 2 2 3 4 5 6 6 7 8 8 8 9 9 10 10 9 8 9 9 10 10 10 10 10 10 10 10 9
4 3 2 4 4 3 0 1 2 2 5 3 2 4 4 8 8 6 4 2 1 1 2 2 3 4 5 6 6 8 8 8 9 9 9 9 8 7 7 9 10 10 10 10 9 9 9 9 9
4 3 4 2 3 3 1 2 4 3 3 3 3 4 7 8 8 7 5 3 2 0 1 1 2 3 4 5 6 7 7 7 7 7 7 7 6 6 6 8 9 9 8 7 8 8 8 7 5
4 5 3 2 3 2 2 2 4 7 4 6 8 9 8 7 7 6 5 4 3 1 0 1 1 2 3 3 4 4 5 6 6 6 6 5 5 5 5 5 6 6 5 3 4 4 4 3 4
3 3 2 2 2 2 3 3 4 7 6 6 10 11 9 9 8 7 6 5 3 2 1 1 1 2 3 3 3 3 3 4 4 6 6 4 2 3 3 2 3 3 3 2 2 2 3 4 5
3 2 2 2 1 1 2 3 3 4 2 7 9 9 9 9 7 5 5 5 4 3 2 0 1 2 2 3 3 3 3 3 4 5 6 4 2 3 3 2 2 2 2 2 2 2 3 3 3
3 1 1 1 2 1 1 1 1 5 6 9 10 9 9 8 7 6 6 5 4 4 2 0 1 2 2 2 2 2 3 4 4 5 6 5 3 2 3 3 2 2 2 2 2 3 3 3 3
2 2 2 2 1 0 1 3 6 4 8 9 9 8 7 7 7 8 8 7 6 4 2 1 1 2 3 3 3 3 3 3 3 4 6 6 5 3 3 3 3 3 3 2 2 2 2 2 3
3 3 2 3 4 2 3 8 6 7 10 10 8 7 7 6 7 7 7 6 5 3 2 1 1 2 2 3 3 3 3 3 3 5 6 7 6 5 3 3 3 4 3 1 1 1 1 2 2
3 1 4 4 4 4 5 8 4 6 10 10 9 7 7 6 6 6 6 6 5 4 3 1 1 1 2 3 3 3 3 3 4 5 5 6 7 7 3 3 3 4 2 2 1 0 1 1 2
5 4 5 6 4 5 6 9 5 5 9 10 8 7 7 9 9 7 6 5 4 3 3 2 0 1 2 2 3 3 4 4 4 4 5 6 7 7 5 3 4 4 2 2 2 1 1 1 1
6 6 6 6 4 6 8 11 9 6 8 9 8 8 9 9 6 5 5 5 4 3 3 2 1 1 1 2 2 2 3 3 3 4 6 6 6 6 5 4 5 4 3 3 3 1 1 1 0
5 5 5 4 3 5 5 9 8 7 9 10 11 11 10 8 6 7 6 5 4 4 4 3 2 2 1 1 0 1 1 2 2 3 4 7 6 6 5 5 4 4 4 4 4 2 1 1 1
5 6 6 4 2 1 2 8 6 4 5 6 7 8 9 11 11 9 8 7 5 5 6 5 4 3 2 1 1 2 2 3 4 4 4 5 6 5 5 5 4 4 4 3 4 3 2 1 1
5 6 5 3 2 3 0 4 8 4 4 6 8 8 10 10 9 9 9 8 7 7 6 5 4 3 2 0 1 1 1 1 2 3 3 5 5 5 5 5 4 4 4 4 4 3 2 1 1
4 2 3 2 3 2 1 2 8 3 5 8 9 10 9 10 11 11 10 9 8 7 6 5 4 4 3 1 1 1 0 1 2 2 4 4 5 5 5 5 4 4 4 4 4 4 3 2 1
5 6 7 6 5 2 4 5 7 5 8 6 6 9 10 10 10 9 8 7 6 5 5 5 5 5 3 2 1 2 2 1 1 2 3 4 3 4 5 4 4 4 4 4 3 3 3 3 2
5 5 4 4 3 6 3 4 9 7 8 8 8 9 9 10 10 9 9 9 8 8 7 6 6 5 4 3 3 3 3 2 2 2 2 2 3 3 5 4 4 3 3 4 4 4 4 3 3
5 7 6 4 4 5 2 6 8 7 5 5 6 7 8 9 9 10 11 10 9 9 8 7 7 6 5 5 4 4 3 2 2 3 2 2 2 3 4 3 3 3 3 3 3 3 3 3 3
7 4 6 6 2 2 6 8 9 3 1 2 5 7 9 10 10 11 10 9 9 9 9 9 8 7 6 6 5 4 4 4 4 3 2 2 2 2 3 3 3 3 3 3 3 3 3 3 3
5 9 6 5 3 4 7 6 6 7 8 6 6 8 9 9 9 9 9 9 9 9 8 7 7 7 6 5 5 4 4 4 4 3 3 3 3 2 2 3 2 3 3 3 3 2 3 4 3
5 5 6 5 5 5 4 8 7 9 9 10 10 10 10 10 10 10 10 9 9 7 6 6 7 7 6 6 5 5 4 4 3 3 3 3 2 2 2 1 2 2 2 2 2 2 3 3 4
6 8 8 5 4 5 4 8 8 8 9 9 10 9 8 9 9 9 9 8 7 8 7 7 7 7 7 5 5 5 4 3 3 4 4 3 2 2 2 1 1 2 2 2 2 2 3 3 4
Wind_Direction
214 112 78 55 57 54 272 272 272 336 32 38 52 70 86 77 81 123 309 251 152 148 168 176 183 181 177 182 190 195 198 202 209 209 208 207 199 191 193 194 194 193 188 184 181 177 163 150 135
125 96 61 53 94 134 270 281 309 321 143 126 57 60 71 68 50 51 349 35 120 134 148 172 189 189 193 206 221 237 243 242 242 241 239 237 233 226 220 218 216 214 211 206 204 209 208 201 195
119 90 92 73 155 194 235 283 332 60 99 94 74 52 71 65 53 81 276 103 103 108 116 160 176 204 255 269 276 277 275 272 268 264 260 257 254 250 243 234 231 228 226 221 219 222 228 231 231
106 73 58 75 236 230 235 231 157 119 83 70 98 77 61 21 197 158 121 103 95 72 65 20 19 340 312 306 304 301 295 293 288 283 277 273 268 262 257 250 243 239 234 230 228 229 233 236 242
75 93 79 307 268 271 256 226 201 171 94 85 104 101 69 6 77 103 102 96 96 68 49 23 13 356 339 331 329 323 315 309 304 299 294 289 284 277 270 265 256 248 243 237 233 233 238 240 243
78 79 105 254 277 302 297 193 157 132 114 120 116 116 133 72 113 111 98 86 78 69 41 28 15 6 354 345 337 329 324 317 312 308 304 300 295 288 281 275 269 259 251 246 240 236 239 244 246
120 119 183 230 277 299 277 141 148 142 136 156 138 122 152 199 169 125 103 87 74 64 45 24 10 2 354 345 338 335 328 324 319 314 312 308 302 296 294 289 284 275 261 251 245 241 242 244 247
138 118 147 235 229 261 307 87 113 134 135 121 133 145 182 195 142 114 94 78 65 52 30 7 358 354 348 341 336 335 328 325 323 322 320 315 310 309 308 302 293 284 273 262 252 249 247 245 246
107 95 207 221 204 236 273 111 82 78 113 98 126 165 165 134 123 114 98 61 41 36 11 356 347 347 344 333 339 342 336 333 331 327 326 326 321 312 304 299 294 287 279 270 256 250 252 251 251
117 156 227 210 199 208 194 175 164 124 113 112 89 88 113 125 136 145 156 171 182 248 321 329 329 343 346 340 343 342 339 335 332 325 323 323 317 309 305 303 301 300 295 285 268 252 254 256 255
158 188 209 214 219 201 164 177 166 147 186 192 175 159 144 142 153 163 174 180 190 191 99 25 355 355 357 342 336 337 335 337 338 335 333 329 328 323 321 312 312 313 313 305 292 270 243 221 219
171 218 194 207 215 186 171 174 177 188 220 190 167 158 154 160 173 179 179 176 166 152 165 6 1 356 352 347 335 333 338 340 340 340 346 345 336 327 318 310 312 311 301 279 261 250 231 215 213
192 222 234 247 268 226 165 204 201 221 192 137 143 152 163 171 176 177 169 166 161 172 198 236 340 356 349 354 341 355 344 341 339 345 354 356 340 325 316 309 307 296 288 265 251 238 221 214 210
191 212 266 298 1 354 175 280 190 232 149 146 158 171 176 175 169 157 160 167 179 190 200 246 315 348 3 4 354 345 349 355 357 358 358 2 354 332 323 321 316 307 295 263 237 228 219 221 207
81 41 336 266 158 239 83 284 233 204 152 163 178 182 176 179 171 176 179 178 186 190 191 240 216 21 20 12 0 2 360 11 6 358 3 8 6 353 338 334 332 316 312 290 263 237 212 219 211
56 47 311 262 168 173 153 259 256 173 164 181 190 188 182 185 186 187 184 182 184 175 168 272 72 56 24 12 360 1 12 20 12 6 9 10 10 6 355 348 335 326 331 325 287 244 215 219 219
50 309 264 281 191 163 183 248 285 173 176 192 196 193 188 188 192 196 196 188 181 177 172 153 69 40 14 8 5 10 19 21 14 13 11 9 12 14 12 1 341 344 349 349 321 265 212 219 232
191 211 245 252 212 171 210 251 269 194 190 203 201 194 194 198 202 196 197 189 170 164 158 149 100 3 0 5 11 10 16 10 13 13 9 11 13 15 18 13 0 1 13 4 351 323 292 234 243
179 195 234 249 195 181 226 254 264 208 204 214 210 203 205 210 203 190 189 172 156 160 165 182 208 319 4 15 12 6 352 343 353 358 8 13 16 17 23 17 11 13 20 6 356 352 11 342 345
175 209 246 275 186 188 252 273 268 210 207 210 208 205 203 196 187 189 186 179 180 185 192 208 230 268 295 285 267 254 294 312 313 328 359 14 15 14 22 22 15 13 19 20 16 20 34 6 23
197 205 220 224 63 71 334 309 296 268 225 213 202 197 195 193 192 189 187 192 191 200 205 210 227 245 266 302 42 33 22 6 0 352 349 347 1 12 18 16 15 14 22 16 9 17 47 23 355
226 226 205 162 111 288 74 284 291 294 267 226 212 195 196 195 188 187 188 193 202 211 212 217 227 241 252 238 89 89 71 349 308 309 317 333 358 7 14 14 15 17 20 17 4 25 23 63 28
205 57 121 109 131 346 318 201 286 306 258 245 222 207 201 193 187 189 193 196 204 206 208 217 227 245 253 238 172 130 164 260 296 316 335 347 348 356 6 12 16 19 19 17 18 21 29 40 63
124 72 59 52 73 307 238 182 277 243 227 241 220 205 198 190 189 192 193 191 205 208 213 217 225 244 249 241 222 202 219 255 319 336 343 341 336 340 355 6 17 19 18 16 15 23 32 30 40
101 93 32 352 2 255 265 209 251 258 241 229 220 206 192 184 181 185 188 196 206 209 216 219 224 243 247 239 241 228 229 231 245 273 304 323 331 330 336 355 2 10 10 17 25 33 31 28 30
161 141 161 209 235 282 298 239 256 263 269 235 211 187 178 182 186 191 196 198 204 211 216 218 223 238 245 240 245 237 229 225 242 255 260 280 285 293 315 339 356 8 14 28 35 38 25 27 23
133 161 158 134 172 280 283 284 300 247 231 170 168 168 186 192 193 198 200 202 207 213 217 215 219 234 243 239 239 240 237 233 246 260 264 273 280 292 332 350 2 11 19 24 36 40 21 15 12
136 138 106 119 158 267 295 284 257 250 232 212 199 201 208 201 199 202 203 206 211 217 221 217 219 230 238 236 231 233 236 238 243 254 269 279 292 312 337 350 0 12 16 20 33 25 6 16 3
116 104 106 112 147 161 271 277 233 232 223 214 217 214 209 203 202 203 205 209 212 218 219 220 226 232 238 234 229 238 246 243 240 246 262 273 289 306 314 328 342 350 356 8 22 7 5 11 359
178 171 149 155 205 177 194 269 268 252 242 221 224 223 216 209 205 202 202 201 206 216 220 221 227 231 234 226 223 235 246 245 242 251 263 265 274 289 282 299 310 312 327 335 347 341 353 351 345
Height
1517 1517 1518 1520 1522 1527 1528 1521 1516 1515 1514 1515 1514 1514 1515 1519 1522 1526 1523 1520 1522 1523 1524 1525 1526 1527 1528 1529 1529 1530 1530 1530 1530 1530 1530 1530 1530 1530 1530 1530 1530 1530 1530 1530 1530 1530 1530 1530 1530
1516 1517 1519 1520 1525 1533 1528 1518 1516 1515 1514 1515 1515 1516 1517 1519 1520 1521 1521 1522 1523 1524 1525 1526 1527 1528 1528 1528 1529 1529 1529 1529 1529 1529 1529 1529 1529 1528 1528 1528 1528 1528 1528 1529 1529 1529 1529 1529 1529
1516 1517 1520 1521 1525 1529 1524 1516 1515 1514 1515 1515 1516 1517 1519 1520 1521 1521 1522 1523 1524 1525 1526 1527 1527 1527 1527 1527 1527 1527 1528 1528 1528 1528 1527 1527 1527 1527 1527 1527 1527 1527 1527 1527 1528 1528 1528 1528 1529
1517 1519 1520 1524 1525 1520 1517 1515 1514 1514 1515 1516 1517 1519 1520 1521 1522 1522 1523 1524 1525 1526 1526 1527 1527 1527 1526 1526 1526 1526 1526 1526 1526 1525 1525 1525 1525 1525 1525 1525 1525 1525 1525 1526 1526 1526 1527 1527 1528
1517 1518 1523 1526 1522 1517 1514 1514 1515 1515 1515 1516 1517 1519 1521 1522 1522 1523 1524 1525 1525 1526 1526 1526 1526 1526 1526 1525 1525 1524 1524 1523 1523 1523 1523 1523 1523 1523 1523 1523 1523 1523 1523 1524 1524 1525 1525 1526 1526
1517 1518 1527 1529 1522 1516 1514 1514 1515 1515 1516 1517 1517 1519 1521 1522 1523 1524 1524 1525 1526 1526 1526 1526 1526 1525 1525 1524 1523 1523 1522 1521 1521 1520 1520 1520 1520 1520 1520 1520 1521 1521 1521 1522 1522 1523 1524 1524 1525
1517 1520 1525 1524 1523 1518 1514 1513 1514 1515 1516 1517 1517 1519 1521 1522 1523 1524 1525 1525 1526 1526 1526 1526 1525 1525 1524 1523 1522 1521 1520 1519 1518 1518 1517 1517 1517 1517 1517 1517 1518 1518 1519 1519 1520 1521 1522 1523 1523
1515 1519 1523 1524 1523 1519 1514 1513 1514 1515 1516 1517 1517 1518 1520 1522 1523 1524 1525 1526 1526 1526 1526 1525 1524 1523 1522 1521 1520 1519 1518 1517 1516 1515 1514 1514 1514 1514 1514 1514 1515 1515 1516 1517 1517 1519 1520 1521 1521
1514 1521 1525 1521 1520 1516 1513 1513 1514 1515 1515 1516 1517 1518 1519 1521 1523 1524 1525 1526 1526 1526 1525 1524 1524 1522 1521 1520 1518 1517 1516 1515 1514 1513 1512 1511 1511 1511 1511 1511 1512 1513 1513 1514 1515 1516 1517 1518 1519
1513 1520 1518 1514 1514 1513 1512 1512 1513 1514 1515 1516 1517 1518 1519 1521 1522 1524 1525 1525 1526 1525 1525 1524 1523 1521 1520 1518 1517 1515 1514 1513 1512 1511 1511 1510 1509 1509 1508 1508 1509 1510 1510 1511 1512 1513 1515 1516 1517
1511 1514 1512 1512 1511 1511 1511 1512 1512 1513 1515 1514 1515 1516 1519 1520 1522 1523 1524 1525 1525 1525 1524 1523 1522 1520 1519 1517 1516 1514 1513 1512 1511 1510 1509 1508 1508 1507 1506 1506 1506 1507 1507 1508 1509 1510 1512 1513 1514
1511 1510 1510 1510 1510 1509 1510 1510 1511 1511 1512 1512 1514 1516 1518 1520 1521 1523 1524 1524 1525 1524 1524 1523 1521 1520 1518 1516 1515 1513 1512 1511 1509 1509 1508 1507 1506 1505 1504 1504 1504 1504 1505 1506 1507 1508 1509 1511 1512
1509 1509 1509 1508 1509 1509 1509 1509 1510 1510 1510 1512 1514 1516 1517 1519 1521 1522 1523 1524 1524 1524 1523 1522 1521 1519 1517 1516 1514 1512 1511 1510 1508 1507 1506 1505 1504 1504 1503 1502 1502 1502 1503 1503 1504 1506 1507 1508 1509
1508 1508 1508 1508 1508 1508 1509 1509 1509 1508 1509 1511 1513 1515 1517 1519 1520 1521 1522 1523 1523 1523 1523 1522 1520 1519 1517 1515 1513 1512 1510 1509 1508 1506 1505 1504 1503 1502 1501 1501 1500 1500 1500 1501 1502 1503 1504 1505 1507
1508 1509 1509 1507 1508 1508 1509 1511 1508 1507 1509 1510 1513 1514 1516 1518 1520 1521 1522 1523 1523 1523 1522 1521 1520 1518 1517 1515 1513 1511 1510 1508 1507 1506 1504 1503 1502 1501 1500 1499 1498 1498 1499 1499 1500 1501 1501 1502 1504
1509 1513 1516 1508 1507 1508 1513 1515 1505 1505 1507 1509 1511 1513 1515 1517 1519 1520 1522 1522 1522 1522 1521 1520 1519 1518 1516 1514 1512 1511 1509 1508 1507 1505 1504 1502 1501 1500 1499 1498 1497 1497 1497 1497 1498 1498 1499 1500 1501
1515 1520 1518 1511 1506 1508 1511 1511 1504 1504 1506 1508 1510 1512 1514 1516 1518 1519 1521 1522 1522 1521 1521 1520 1519 1517 1516 1514 1512 1510 1509 1508 1507 1505 1504 1502 1500 1499 1498 1497 1496 1495 1495 1495 1496 1496 1497 1498 1499
1519 1520 1516 1512 1505 1507 1510 1508 1503 1503 1505 1506 1508 1510 1512 1514 1516 1518 1520 1521 1521 1521 1520 1519 1518 1517 1515 1513 1512 1510 1509 1508 1507 1505 1504 1502 1500 1499 1497 1496 1495 1495 1494 1494 1494 1494 1495 1496 1496
1507 1512 1513 1507 1502 1506 1508 1506 1502 1502 1504 1505 1506 1508 1510 1512 1515 1517 1519 1519 1520 1520 1519 1519 1518 1516 1514 1513 1511 1510 1509 1508 1507 1506 1504 1503 1501 1499 1497 1496 1495 1494 1493 1493 1493 1493 1493 1494 1495
1507 1511 1510 1505 1502 1505 1508 1506 1500 1499 1499 1500 1502 1504 1507 1510 1513 1515 1517 1518 1519 1519 1519 1518 1517 1516 1514 1513 1511 1510 1509 1508 1507 1506 1505 1503 1501 1499 1498 1496 1495 1494 1493 1492 1492 1492 1492 1492 1493
1507 1509 1507 1507 1505 1505 1508 1509 1501 1496 1496 1498 1499 1501 1504 1507 1509 1512 1514 1516 1517 1518 1518 1517 1517 1515 1514 1513 1511 1510 1509 1508 1507 1506 1505 1503 1502 1500 1498 1496 1495 1494 1493 1492 1491 1491 1491 1491 1492
1508 1500 1501 1505 1512 1518 1514 1526 1507 1499 1496 1495 1496 1498 1500 1504 1507 1510 1512 1514 1515 1517 1517 1517 1516 1515 1514 1513 1512 1511 1510 1508 1507 1506 1505 1503 1502 1500 1499 1497 1496 1494 1493 1492 1492 1491 1491 1491 1491
1500 1498 1502 1506 1512 1520 1518 1524 1513 1501 1498 1494 1492 1494 1497 1501 1504 1507 1510 1512 1514 1515 1516 1516 1515 1515 1514 1513 1512 1511 1509 1508 1507 1506 1505 1504 1502 1501 1499 1498 1496 1495 1494 1493 1492 1491 1491 1490 1490
1498 1503 1509 1516 1521 1530 1519 1525 1518 1504 1495 1490 1489 1491 1494 1498 1501 1505 1508 1511 1513 1514 1515 1515 1514 1514 1514 1513 1512 1510 1509 1508 1507 1506 1505 1504 1502 1501 1500 1499 1497 1496 1494 1493 1492 1491 1490 1490 1490
1500 1513 1528 1529 1538 1533 1517 1520 1513 1493 1489 1487 1486 1488 1491 1495 1499 1502 1506 1508 1510 1512 1513 1513 1513 1513 1513 1512 1511 1510 1509 1508 1507 1506 1505 1504 1502 1501 1500 1499 1498 1496 1495 1494 1492 1491 1490 1490 1489
1502 1509 1527 1535 1538 1531 1518 1520 1502 1487 1484 1484 1484 1486 1489 1493 1496 1500 1503 1506 1508 1510 1511 1512 1512 1512 1512 1511 1511 1510 1509 1508 1507 1506 1505 1504 1502 1501 1500 1499 1498 1496 1495 1494 1492 1491 1490 1489 1489
1503 1508 1510 1525 1527 1531 1524 1512 1495 1484 1483 1483 1484 1485 1487 1490 1494 1497 1501 1504 1506 1508 1510 1511 1511 1511 1511 1511 1510 1509 1508 1508 1507 1506 1505 1503 1502 1501 1500 1499 1497 1496 1495 1493 1492 1491 1490 1489 1488
1496 1505 1517 1525 1533 1535 1526 1516 1506 1488 1484 1483 1483 1484 1485 1489 1492 1495 1498 1502 1504 1506 1508 1509 1510 1510 1510 1509 1509 1508 1507 1507 1506 1505 1504 1503 1501 1500 1499 1498 1497 1495 1494 1493 1491 1490 1489 1488 1487
1501 1506 1515 1526 1528 1537 1535 1519 1489 1484 1480 1480 1480 1481 1483 1486 1489 1492 1496 1499 1502 1504 1506 1507 1508 1508 1508 1508 1508 1507 1506 1506 1505 1504 1503 1502 1501 1499 1498 1497 1496 1494 1493 1492 1490 1489 1488 1487 1486
1492 1499 1509 1519 1523 1530 1533 1518 1479 1478 1476 1476 1477 1479 1481 1484 1487 1490 1493 1496 1499 1501 1503 1505 1506 1506 1507 1507 1506 1506 1505 1505 1504 1503 1502 1501 1499 1498 1497 1496 1495 1493 1492 1491 1489 1488 1487 1486 1485